Location: Caltech
(34.1382°N, 118.1253°W)
Time: 08:33:18
(UTC-07:00)

Cosmos 1408 Rocket - Visible Passes

Search period start: 26 June 2016 00:00
Search period end: 06 July 2016 00:00
Orbit: 601 x 632 km, 82.6° (Epoch: 26 June)

Date Brightness Start Highest point End Pass type
(mag) Time Alt. Az. Time Alt. Az. Time Alt. Az.
26 Jun 5.0 20:52:16 10° SSW 20:56:27 41° W 21:00:36 10° N visible
27 Jun 6.2 21:09:40 10° SW 21:13:05 22° WNW 21:16:30 10° NNW visible
28 Jun 6.8 21:28:19 10° W 21:29:49 12° WNW 21:31:19 10° NW visible
01 Jul 6.4 20:38:00 10° SW 20:41:26 22° WNW 20:44:53 10° NNW visible
02 Jul 6.9 20:56:33 10° W 20:58:10 12° WNW 20:59:47 10° NW visible
